User: anonymous   Login
Location: Unspecified
(0.0000°N, 0.0000°E)
Time: 03:01:13
(UTC+01:00)
Language:

NATO 3D Rocket - Orbit

View from above orbital plane
View from above orbital plane
View from above satellite
View from above satellite

Ground track
Ground track

The orbit data is extracted from the following two-line orbital elements,

1 15392U 84115B   14353.56150909  .00000508  00000-0  32851-3 0  2224
2 15392 021.4923 152.0496 1034593 142.2781 286.9997 12.45453556370392
Epoch (UTC): 19 December 2014 13:28:34
Eccentricity: 0.1034593
inclination: 21.4923°
perigee height: 670 km
apogee height: 2297 km
right ascension of ascending node: 152.0496°
argument of perigee: 142.2781°
revolutions per day: 12.45453556
mean anomaly at epoch: 286.9997°
orbit number at epoch: 37039

The dashed part of the orbit path shows where the satellite is in the earth's shadow,  

DLR